Location: Borovka
(49.7741°N, 14.5280°E)
Time: 03:30:09
(UTC+00:00)

ESTCUBE 1 - Pass Details

Date: 20 March 2026
Orbit: 620 x 631 km, 97.7° (Epoch: 13 April)

Event Time Altitude Azimuth Distance (km) Brightness Sun altitude
Exits shadow 20:19:33 37° 259° (W) 976 ? -28.4°
Maximum altitude 20:19:40 37° 263° (W) 975 ? -28.4°
Drops below altitude 10° 20:23:46 10° 332° (NNW) 2,019 ? -28.9°
Sets 20:26:07 0° 340° (NNW) 2,934 ? -29.2°
